Location: Étouvelles
(49.5207°N, 3.5808°E)
Time: 13:42:39
(UTC+00:00)

Cosmos 1980 Rocket - Visible Passes

Search period start: 25 September 2023 00:00
Search period end: 05 October 2023 00:00
Orbit: 827 x 851 km, 71.0° (Epoch: 24 September)

Date Brightness Start Highest point End Pass type
(mag) Time Alt. Az. Time Alt. Az. Time Alt. Az.
25 Sep 4.3 00:01:59 10° NNW 00:05:19 22° NNE 00:05:19 22° NNE visible
25 Sep 4.2 01:45:32 10° NNW 01:47:00 19° NNW 01:47:00 19° NNW visible
25 Sep 4.5 18:26:17 10° W 18:30:45 23° NW 18:35:15 10° NNE visible
25 Sep 4.4 23:46:11 10° N 23:49:06 20° NNE 23:49:06 20° NNE visible
26 Sep 4.4 01:29:41 10° NNW 01:30:49 16° NNW 01:30:49 16° NNW visible
26 Sep 4.4 18:10:19 10° W 18:14:52 24° NW 18:19:27 10° NNE visible
26 Sep 4.5 23:30:23 10° N 23:33:02 19° NNE 23:33:02 19° NNE visible
27 Sep 4.6 01:13:51 10° NNW 01:14:44 15° NNW 01:14:44 15° NNW visible
27 Sep 4.6 23:14:36 10° N 23:17:02 18° NNE 23:17:02 18° NNE visible
28 Sep 4.7 00:58:01 10° NNW 00:58:44 14° NNW 00:58:44 14° NNW visible
28 Sep 4.6 22:58:48 10° N 23:01:06 17° NNE 23:01:06 17° NNE visible
29 Sep 4.7 00:42:12 10° NNW 00:42:49 13° NNW 00:42:49 13° NNW visible
29 Sep 4.6 22:43:00 10° N 22:45:13 17° NNE 22:45:13 17° NNE visible
30 Sep 4.8 00:26:22 10° NNW 00:26:57 13° NNW 00:26:57 13° NNW visible
30 Sep 5.0 18:56:41 10° NNW 18:57:27 10° NNW 18:58:13 10° NNW visible
30 Sep 4.6 22:27:13 10° N 22:29:23 16° NNE 22:29:23 16° NNE visible
01 Oct 4.8 00:10:32 10° NNW 00:11:06 13° NNW 00:11:06 13° NNW visible
01 Oct 4.9 18:40:23 10° NNW 18:41:31 11° NNW 18:42:40 10° N visible
01 Oct 4.6 22:11:26 10° N 22:13:35 16° NNE 22:13:35 16° NNE visible
01 Oct 4.9 23:54:43 10° NNW 23:55:19 13° NNW 23:55:19 13° NNW visible
02 Oct 4.8 18:24:10 10° NW 18:25:36 11° NNW 18:27:01 10° N visible
02 Oct 4.6 21:55:39 10° N 21:57:49 16° NNE 21:57:49 16° NNE visible
02 Oct 4.9 23:38:53 10° NNW 23:39:32 13° NNW 23:39:32 13° NNW visible
03 Oct 4.8 18:08:01 10° NW 18:09:40 11° NNW 18:11:20 10° N visible
03 Oct 4.6 21:39:52 10° N 21:42:03 15° NNE 21:42:03 15° NNE visible
03 Oct 4.9 23:23:04 10° NNW 23:23:48 14° NNW 23:23:48 14° NNW visible
04 Oct 4.7 17:51:51 10° NW 17:53:44 11° NNW 17:55:38 10° N visible
04 Oct 4.5 21:24:05 10° N 21:26:21 15° NNE 21:26:21 15° NNE visible
04 Oct 4.8 23:07:15 10° NNW 23:08:05 14° NNW 23:08:05 14° NNW visible
